FW5819 Weather Reports


Display with metric or nautical units.
time (UTC)temp
F
wind
direction
speed
MPH
gust
MPH
rain 1hr
in
rain 24hr
in
rain mn
in
humidity
%
barometer
mb
20260508041533 48 257 0.0 3.0 0.00 0.00 0.00 69 1013.2
20260508040035 49 278 2.0 4.0 0.00 0.00 0.00 68 1013.1
20260508034533 49 126 2.0 7.0 0.00 0.00 0.00 68 1013.1
20260508033035 49 235 1.0 4.0 0.00 0.00 0.00 67 1013.1
20260508031532 50 201 1.0 10.0 0.00 0.00 0.00 66 1013.3
20260508030041 49 192 1.0 9.0 0.00 0.00 0.00 67 1013.5
20260508024539 48 284 1.0 9.0 0.00 0.00 0.00 68 1013.6
20260508023035 47 242 1.0 7.0 0.00 0.00 0.00 71 1013.4
20260508021541 45 214 0.0 5.0 0.00 0.00 0.00 74 1013.4
20260508020034 44 0 0.0 2.0 0.00 0.00 0.00 77 1013.3
20260508014532 44 0 0.0 1.0 0.00 0.00 0.00 76 1013.2
20260508013041 43 0 0.0 1.0 0.00 0.00 0.00 75 1013.0
20260508011536 44 0 0.0 0.0 0.00 0.00 0.00 72 1012.7
20260508010034 45 0 0.0 0.0 0.00 0.00 0.00 69 1012.6
20260508004539 47 0 0.0 0.0 0.00 0.00 0.00 65 1012.5
20260508003038 50 0 0.0 1.0 0.00 0.00 0.00 61 1012.6
20260508001535 52 0 0.0 1.0 0.00 0.00 0.00 54 1012.4
20260508000032 54 0 0.0 2.0 0.00 0.00 0.00 53 1012.3
20260507234534 54 256 2.0 7.0 0.00 0.00 0.00 52 1012.3
20260507233038 54 332 2.0 11.0 0.00 0.00 0.00 51 1012.4
20260507231535 55 304 2.0 12.0 0.00 0.00 0.00 49 1012.3
20260507230031 56 286 2.0 11.0 0.00 0.00 0.00 53 1012.5
20260507224535 56 305 3.0 10.0 0.00 0.00 0.00 48 1012.6
20260507223038 56 279 4.0 14.0 0.00 0.00 0.00 49 1012.6
20260507221536 56 323 3.0 11.0 0.00 0.00 0.00 50 1012.8
20260507220036 56 324 3.0 12.0 0.00 0.00 0.00 52 1012.5
20260507214543 56 319 3.0 16.0 0.00 0.00 0.00 49 1012.6
20260507213034 57 329 3.0 11.0 0.00 0.00 0.00 50 1012.5
20260507211536 56 292 5.0 16.0 0.00 0.00 0.00 49 1012.5
20260507210047 56 268 4.0 14.0 0.00 0.00 0.00 52 1012.4
20260507204537 56 319 6.0 16.0 0.00 0.00 0.00 58 1012.3
20260507203046 56 321 5.0 14.0 0.00 0.00 0.00 57 1012.3
20260507201535 55 321 6.0 11.0 0.00 0.00 0.00 59 1012.2
20260507200036 53 318 2.0 8.0 0.00 0.00 0.00 68 1012.3
20260507194607 53 339 2.0 9.0 0.00 0.00 0.00 65 1012.4
20260507193035 53 290 4.0 10.0 0.00 0.00 0.00 63 1012.4
20260507191541 53 294 4.0 10.0 0.00 0.00 0.00 60 1012.5
20260507190033 54 292 4.0 11.0 0.00 0.00 0.00 58 1012.7
20260507184541 54 16 2.0 10.0 0.00 0.00 0.00 60 1012.5
20260507183037 55 9 4.0 12.0 0.00 0.00 0.00 61 1012.4
20260507181535 55 24 2.0 6.0 0.00 0.00 0.00 63 1012.6
20260507180039 54 260 3.0 10.0 0.00 0.00 0.00 61 1012.6
20260507174542 54 291 2.0 9.0 0.00 0.00 0.00 60 1012.8
20260507173037 55 23 2.0 10.0 0.00 0.00 0.00 59 1013.0
20260507171545 55 327 4.0 11.0 0.00 0.00 0.00 65 1013.0
20260507170040 54 226 4.0 11.0 0.00 0.00 0.00 64 1013.2
20260507164533 54 291 3.0 11.0 0.00 0.00 0.00 61 1013.0
20260507163041 54 296 2.0 9.0 0.00 0.00 0.00 62 1013.0
20260507161546 54 61 1.0 10.0 0.00 0.00 0.00 64 1013.0
20260507160035 54 340 3.0 9.0 0.00 0.00 0.00 63 1013.1
20260507154538 54 10 4.0 10.0 0.00 0.00 0.00 66 1013.1
20260507153043 53 311 3.0 11.0 0.00 0.00 0.00 65 1013.1
20260507151533 54 15 3.0 6.0 0.00 0.00 0.00 64 1013.2
20260507150032 53 38 3.0 8.0 0.00 0.00 0.00 67 1013.1
20260507144534 54 316 2.0 6.0 0.00 0.00 0.00 66 1013.3
20260507143034 53 250 2.0 5.0 0.00 0.00 0.00 71 1013.1
20260507141534 53 214 2.0 7.0 0.00 0.00 0.00 72 1013.2
20260507140039 53 289 2.0 8.0 0.00 0.00 0.00 72 1013.3
20260507134538 53 267 1.0 4.0 0.00 0.00 0.00 73 1013.4
20260507133035 52 263 2.0 4.0 0.00 0.00 0.00 73 1013.4
20260507131537 51 190 2.0 4.0 0.00 0.00 0.00 75 1013.4
20260507130040 49 9 2.0 6.0 0.00 0.00 0.00 75 1013.4
20260507124534 48 0 1.0 4.0 0.00 0.00 0.00 79 1013.5
20260507123035 46 205 1.0 5.0 0.00 0.00 0.00 80 1013.4
20260507121535 46 218 1.0 2.0 0.00 0.00 0.00 82 1013.3
20260507120040 45 280 0.0 4.0 0.00 0.00 0.00 82 1013.2
20260507114539 44 253 2.0 4.0 0.00 0.00 0.00 83 1013.2
20260507113039 43 238 1.0 6.0 0.00 0.00 0.00 84 1013.2
20260507111535 42 0 0.0 1.0 0.00 0.00 0.00 85 1013.1
20260507110036 42 301 1.0 6.0 0.00 0.00 0.00 86 1013.2
20260507104538 41 157 0.0 3.0 0.00 0.00 0.00 86 1012.8
20260507103040 41 0 0.0 3.0 0.00 0.00 0.00 86 1012.5
20260507101534 41 184 0.0 1.0 0.00 0.00 0.00 86 1012.5
20260507100035 41 0 0.0 1.0 0.00 0.00 0.00 85 1012.5
20260507094536 42 181 0.0 1.0 0.00 0.01 0.00 85 1012.5
20260507093032 42 200 0.0 2.0 0.00 0.01 0.00 85 1012.5
20260507091535 41 0 0.0 2.0 0.00 0.01 0.00 85 1012.6
20260507090034 41 128 0.0 1.0 0.00 0.01 0.00 85 1012.8
20260507084533 42 0 0.0 2.0 0.00 0.03 0.00 85 1012.7
20260507083036 42 166 0.0 1.0 0.00 0.03 0.00 86 1012.7
20260507081536 42 0 0.0 3.0 0.00 0.03 0.00 87 1012.8
20260507080041 41 165 0.0 2.0 0.00 0.03 0.00 87 1012.9
20260507074532 41 200 0.0 2.0 0.00 0.09 0.00 88 1012.8
20260507073037 41 0 0.0 1.0 0.00 0.09 0.00 88 1012.8
20260507071559 41 0 0.0 0.0 0.00 0.09 0.00 88 1012.8
20260507070037 41 0 0.0 1.0 0.00 0.09 0.00 88 1012.9
20260507064532 41 0 0.0 1.0 0.00 0.11 0.00 89 1013.1
20260507063037 41 205 0.0 1.0 0.00 0.11 0.00 89 1013.1
20260507061534 40 0 0.0 1.0 0.00 0.11 0.00 90 1013.3
20260507060038 39 0 0.0 0.0 0.00 0.11 0.00 89 1013.3
20260507054536 40 0 0.0 0.0 0.00 0.14 0.00 88 1013.4
20260507053052 40 0 0.0 0.0 0.00 0.14 0.00 88 1013.4
20260507051542 41 0 0.0 0.0 0.00 0.14 0.00 87 1013.5
20260507050036 41 0 0.0 0.0 0.00 0.14 0.00 87 1013.5
20260507044537 42 0 0.0 0.0 0.00 0.16 0.00 86 1013.7
20260507043037 43 0 0.0 0.0 0.00 0.16 0.00 86 1013.7